Location: Hanover
(39.8010°N, 76.9830°W)
Time: 22:06:39
(UTC-04:00)

ISS - Visible Passes

Search period start: 28 May 2023 00:00
Search period end: 07 June 2023 00:00
Orbit: 412 x 420 km, 51.6° (Epoch: 28 May)

Date Brightness Start Highest point End Pass type
(mag) Time Alt. Az. Time Alt. Az. Time Alt. Az.
28 May -2.7 21:25:23 10° NW 21:28:31 37° NNE 21:31:12 13° E visible
28 May -1.7 23:02:20 10° WNW 23:04:05 21° WSW 23:04:05 21° WSW visible
29 May -3.2 22:13:25 10° WNW 22:16:38 44° SW 22:17:18 38° S visible
30 May -3.8 21:24:41 10° NW 21:28:02 84° SW 21:30:34 16° SE visible
31 May -1.5 22:13:43 10° W 22:15:47 16° SW 22:16:44 14° SSW visible
01 Jun -2.2 21:24:23 10° WNW 21:27:16 27° SW 21:30:05 10° SSE visible
